Location: Gülübeli Geçidi
(36.8411°N, 29.7411°E)
Time: 11:13:32
(UTC+00:00)

Cosmos 2360 Rocket - Pass Details

Date: 15 May 2026
Orbit: 831 x 845 km, 71.0° (Epoch: 7 June)

Event Time Altitude Azimuth Distance (km) Brightness Sun altitude
Rises 20:06:13 0° 337° (NNW) 3,410 6.6 -28.3°
Reaches altitude 10° 20:08:40 10° 336° (NNW) 2,471 5.6 -28.5°
Enters shadow 20:14:01 77° 297° (WNW) 868 2.2 -29.0°
